Location: Buisson
(44.2787°N, 4.9969°E)
Time: 02:19:28
(UTC+00:00)

NPP - Pass Details

Date: 18 April 2021
Orbit: 826 x 828 km, 98.7° (Epoch: 08 May)

Event Time Altitude Azimuth Distance (km) Brightness Sun altitude
Rises 01:05:36 0° 18° (NNE) 3,375 8.0 -31.5°
Reaches altitude 10° 01:08:01 10° 23° (NNE) 2,437 7.0 -31.3°
Enters shadow 01:12:42 52° 75° (ENE) 1,023 4.2 -30.9°
